User: anonymous   Login
Location: Azul
(36.7830°S, 59.8500°W)
Time: 05:45:43
(UTC-03:00)
Language:

VELOX 1 - Orbit

View from above orbital plane
View from above orbital plane
View from above satellite
View from above satellite

Ground track
Ground track

The orbit data is extracted from the following two-line orbital elements,

1 40057U 14034E   24259.90252877  .00012957  00000-0  14275-2 0  9995
2 40057  98.3301 119.4903 0008097 198.7470 161.3447 14.87654681551185
Epoch (UTC): 15 September 2024 21:39:38
Eccentricity: 0.0008097
inclination: 98.3301°
perigee height: 599 km
apogee height: 611 km
right ascension of ascending node: 119.4903°
argument of perigee: 198.7470°
revolutions per day: 14.87654681
mean anomaly at epoch: 161.3447°
orbit number at epoch: 55118

The dashed part of the orbit path shows where the satellite is in the earth's shadow,  

DLR